Terminal Aerodrome Forecast
Issued by NWS

Home | Current Version | Previous Version | Text Only | Print | Product List | Glossary On
Versions: 1 2 3 4 5 6 7 8 9 10 11 12 13 14 15 16 17 18 19 20 21
000
FTUS45 KSLC 202325
TAFSGU
TAF
KSGU 202325Z 2100/2124 23009KT P6SM SCT200
     FM210300 VRB03KT P6SM BKN200
     FM211200 VRB05KT P6SM SCT080 BKN180
      AMD LTD TO CLD VIS AND WIND=

USA.gov is the U.S. government's official web portal to all federal, state and local government web resources and services.